| time (UTC) | temp F | wind direction | speed knots | gust knots | rain 1hr in | rain 24hr in | rain mn in | humidity % | barometer mb |
| 20260506043017 | 53 | 203 | 1.7 | 5.2 | 0.00 | 0.13 | 0.01 | 94 | 1005.4 |
| 20260506040016 | 53 | 180 | 2.6 | 9.6 | 0.00 | 0.13 | 0.01 | 93 | 1005.6 |
| 20260506033016 | 54 | 180 | 1.7 | 6.1 | 0.00 | 0.13 | 0.01 | 94 | 1005.8 |
| 20260506030016 | 54 | 180 | 1.7 | 7.0 | 0.00 | 0.13 | 0.01 | 94 | 1005.9 |
| 20260506023016 | 54 | 180 | 0.9 | 7.0 | 0.00 | 0.13 | 0.01 | 95 | 1005.9 |
| 20260506020016 | 55 | 158 | 0.9 | 4.3 | 0.00 | 0.13 | 0.01 | 95 | 1005.8 |
| 20260506013016 | 55 | 0.0 | 2.6 | 0.01 | 0.13 | 0.01 | 95 | 1005.9 | |
| 20260506010016 | 55 | 180 | 0.9 | 4.3 | 0.01 | 0.13 | 0.01 | 95 | 1006.3 |
| 20260506003016 | 55 | 180 | 1.7 | 5.2 | 0.00 | 0.13 | 0.00 | 95 | 1006.6 |
| 20260506000016 | 55 | 180 | 0.9 | 7.0 | 0.00 | 0.13 | 0.00 | 96 | 1006.7 |
| 20260505233017 | 54 | 0.0 | 0.0 | 0.00 | 0.13 | 0.00 | 96 | 1006.7 | |
| 20260505230016 | 54 | 0.0 | 0.0 | 0.00 | 0.13 | 0.00 | 96 | 1006.9 | |
| 20260505223016 | 54 | 0.0 | 0.0 | 0.00 | 0.13 | 0.00 | 95 | 1007.1 | |
| 20260505220016 | 54 | 0.0 | 0.9 | 0.01 | 0.13 | 0.13 | 95 | 1007.1 | |
| 20260505213017 | 55 | 0.0 | 3.5 | 0.01 | 0.13 | 0.13 | 95 | 1007.1 | |
| 20260505210017 | 56 | 180 | 0.9 | 3.5 | 0.00 | 0.12 | 0.12 | 94 | 1007.3 |
| 20260505203016 | 56 | 0.0 | 2.6 | 0.00 | 0.12 | 0.12 | 94 | 1007.1 | |
| 20260505200016 | 56 | 203 | 0.9 | 5.2 | 0.00 | 0.12 | 0.12 | 94 | 1007.1 |
| 20260505193017 | 56 | 180 | 0.9 | 4.3 | 0.01 | 0.12 | 0.12 | 93 | 1006.7 |
| 20260505190016 | 57 | 158 | 0.9 | 3.5 | 0.02 | 0.12 | 0.12 | 92 | 1006.7 |
| 20260505183016 | 57 | 0.0 | 2.6 | 0.02 | 0.11 | 0.11 | 93 | 1006.7 | |
| 20260505180016 | 58 | 0.0 | 2.6 | 0.02 | 0.10 | 0.10 | 92 | 1006.8 | |
| 20260505173016 | 58 | 0.0 | 0.9 | 0.00 | 0.09 | 0.09 | 93 | 1006.8 | |
| 20260505170016 | 58 | 0.0 | 1.7 | 0.00 | 0.09 | 0.09 | 92 | 1006.8 | |
| 20260505163016 | 58 | 0.0 | 0.9 | 0.00 | 0.09 | 0.09 | 92 | 1006.9 | |
| 20260505153016 | 58 | 270 | 0.9 | 2.6 | 0.02 | 0.09 | 0.09 | 89 | 1007.2 |
| 20260505123016 | 59 | 180 | 0.9 | 4.3 | 0.02 | 0.02 | 0.02 | 87 | 1008.3 |
| 20260505120016 | 59 | 225 | 0.9 | 4.3 | 0.02 | 0.02 | 0.02 | 86 | 1008.2 |
| 20260505113015 | 59 | 180 | 0.9 | 4.3 | 0.00 | 0.00 | 0.00 | 86 | 1008.4 |
| 20260505100015 | 59 | 225 | 0.9 | 5.2 | 0.00 | 0.00 | 0.00 | 82 | 1009.0 |
| 20260505093017 | 58 | 203 | 1.7 | 5.2 | 0.00 | 0.00 | 0.00 | 84 | 1009.0 |
| 20260505090017 | 59 | 113 | 1.7 | 5.2 | 0.00 | 0.00 | 0.00 | 79 | 1009.2 |
| 20260505083017 | 59 | 158 | 0.9 | 2.6 | 0.00 | 0.00 | 0.00 | 80 | 1009.3 |
| 20260505080017 | 58 | 180 | 0.9 | 3.5 | 0.00 | 0.00 | 0.00 | 84 | 1009.3 |
| 20260505073017 | 57 | 158 | 0.9 | 4.3 | 0.00 | 0.00 | 0.00 | 85 | 1009.4 |
| 20260505070017 | 56 | 0.0 | 2.6 | 0.00 | 0.00 | 0.00 | 87 | 1009.5 |